GW3497 Weather Reports


time (UTC)temp
C
wind
direction
speed
KPH
gust
KPH
rain 1hr
cm
rain 24hr
cm
rain mn
cm
humidity
%
barometer
mb
20260906194944 20 231 4.8 11.3 0.00 0.00 0.00 62 1017.0
20260906194549 20 210 4.8 14.5 0.00 0.00 0.00 61 1016.9
20260906193430 20 179 3.2 19.3 0.00 0.00 0.00 61 1016.9
20260906192926 20 97 4.8 17.7 0.00 0.00 0.00 61 1017.0
20260906192429 20 206 6.4 17.7 0.00 0.00 0.00 60 1017.1
20260906191928 21 151 3.2 16.1 0.00 0.00 0.00 60 1017.1
20260906191429 21 204 8.0 16.1 0.00 0.00 0.00 60 1017.2
20260906190928 21 172 6.4 14.5 0.00 0.00 0.00 59 1017.2
20260906190425 21 185 6.4 14.5 0.00 0.00 0.00 59 1017.2
20260906185924 21 176 6.4 14.5 0.00 0.00 0.00 58 1017.2
20260906185424 21 200 4.8 9.7 0.00 0.00 0.00 58 1017.2
20260906184924 21 212 3.2 11.3 0.00 0.00 0.00 58 1017.2
20260906184421 21 190 6.4 19.3 0.00 0.00 0.00 57 1017.2
20260906183924 21 247 6.4 19.3 0.00 0.00 0.00 57 1017.2
20260906183420 22 178 4.8 16.1 0.00 0.00 0.00 56 1017.2
20260906182920 22 207 6.4 19.3 0.00 0.00 0.00 56 1017.3
20260906182419 22 166 6.4 19.3 0.00 0.00 0.00 55 1017.2
20260906181919 22 186 6.4 19.3 0.00 0.00 0.00 55 1017.3
20260906181419 22 159 6.4 16.1 0.00 0.00 0.00 54 1017.3
20260906180921 23 178 3.2 16.1 0.00 0.00 0.00 54 1017.3
20260906180723 23 186 6.4 17.7 0.00 0.00 0.00 53 1017.3
20260906175917 23 180 9.7 22.5 0.00 0.00 0.00 53 1017.4
20260906175418 23 235 8.0 22.5 0.00 0.00 0.00 53 1017.3
20260906174917 23 210 8.0 19.3 0.00 0.00 0.00 52 1017.3
20260906174417 23 241 4.8 16.1 0.00 0.00 0.00 52 1017.4
20260906173916 23 213 6.4 19.3 0.00 0.00 0.00 50 1017.5
20260906173423 23 157 9.7 20.9 0.00 0.00 0.00 50 1017.5
20260906172920 23 226 6.4 20.9 0.00 0.00 0.00 49 1017.6
20260906172415 24 180 9.7 19.3 0.00 0.00 0.00 48 1017.7
20260906172249 24 189 8.0 19.3 0.00 0.00 0.00 47 1017.8
20260906171406 24 220 8.0 25.7 0.00 0.00 0.00 47 1017.9
20260906170905 24 213 6.4 25.7 0.00 0.00 0.00 47 1017.9
20260906170406 24 243 4.8 19.3 0.00 0.00 0.00 47 1017.8
20260906165904 25 220 9.7 19.3 0.00 0.00 0.00 46 1017.8
20260906165406 25 221 9.7 19.3 0.00 0.00 0.00 46 1017.8
20260906164906 25 183 3.2 9.7 0.00 0.00 0.00 46 1017.9
20260906164405 25 178 4.8 22.5 0.00 0.00 0.00 45 1018.0
20260906163908 25 188 9.7 22.5 0.00 0.00 0.00 44 1018.0
20260906163404 25 202 8.0 19.3 0.00 0.00 0.00 44 1018.0
20260906162906 25 196 9.7 20.9 0.00 0.00 0.00 43 1018.0
20260906162403 26 206 9.7 20.9 0.00 0.00 0.00 43 1018.0
20260906161900 26 206 6.4 20.9 0.00 0.00 0.00 43 1018.1
20260906161721 26 220 9.7 22.5 0.00 0.00 0.00 43 1018.0
20260906160853 26 203 11.3 22.5 0.00 0.00 0.00 41 1018.1
20260906160355 27 214 8.0 22.5 0.00 0.00 0.00 40 1018.1
20260906160306 27 230 9.7 22.5 0.00 0.00 0.00 38 1018.0
20260906155353 27 216 6.4 24.1 0.00 0.00 0.00 37 1018.0
20260906154853 28 202 12.9 24.1 0.00 0.00 0.00 37 1017.9
20260906154352 28 221 11.3 20.9 0.00 0.00 0.00 37 1018.0
20260906153854 28 233 8.0 20.9 0.00 0.00 0.00 36 1018.1
20260906153352 29 217 14.5 20.9 0.00 0.00 0.00 36 1018.1
20260906152853 29 188 9.7 20.9 0.00 0.00 0.00 37 1018.2
20260906152353 28 245 6.4 20.9 0.00 0.00 0.00 38 1018.2
20260906151859 28 214 6.4 19.3 0.00 0.00 0.00 36 1018.3
20260906151713 28 190 9.7 22.5 0.00 0.00 0.00 36 1018.3
20260906150850 28 183 9.7 22.5 0.00 0.00 0.00 35 1018.4
20260906150703 28 227 8.0 29.0 0.00 0.00 0.00 35 1018.5
20260906145847 28 209 14.5 29.0 0.00 0.00 0.00 36 1018.5
20260906145348 28 197 6.4 22.5 0.00 0.00 0.00 37 1018.5
20260906144846 28 223 8.0 22.5 0.00 0.00 0.00 36 1018.6
20260906144346 28 195 8.0 19.3 0.00 0.00 0.00 37 1018.7
20260906143846 29 206 8.0 24.1 0.00 0.00 0.00 37 1018.8
20260906143344 29 214 12.9 24.1 0.00 0.00 0.00 37 1018.9
20260906142846 29 240 11.3 24.1 0.00 0.00 0.00 37 1019.0
20260906142342 28 202 4.8 24.1 0.00 0.00 0.00 39 1019.0
20260906141847 28 241 8.0 24.1 0.00 0.00 0.00 38 1019.1
20260906141344 28 216 8.0 24.1 0.00 0.00 0.00 39 1019.1
20260906140842 28 199 8.0 22.5 0.00 0.00 0.00 38 1019.2
20260906140341 28 243 12.9 22.5 0.00 0.00 0.00 38 1019.2
20260906135845 28 261 9.7 22.5 0.00 0.00 0.00 40 1019.2
20260906135344 27 240 8.0 22.5 0.00 0.00 0.00 40 1019.4
20260906135211 27 185 9.7 27.4 0.00 0.00 0.00 40 1019.5
20260906134654 27 238 17.7 27.4 0.00 0.00 0.00 40 1019.6
20260906133835 27 180 6.4 22.5 0.00 0.00 0.00 42 1019.5
20260906133336 27 223 11.3 22.5 0.00 0.00 0.00 41 1019.7
20260906132838 27 200 11.3 24.1 0.00 0.00 0.00 40 1019.7
20260906132336 27 182 8.0 24.1 0.00 0.00 0.00 41 1019.9
20260906131835 27 188 6.4 20.9 0.00 0.00 0.00 41 1019.9
20260906131334 27 172 8.0 22.5 0.00 0.00 0.00 41 1020.0
20260906130835 27 171 9.7 22.5 0.00 0.00 0.00 41 1020.0
20260906130335 27 200 8.0 20.9 0.00 0.00 0.00 43 1020.2
20260906125832 27 224 9.7 19.3 0.00 0.00 0.00 42 1020.1
20260906125335 27 234 11.3 22.5 0.00 0.00 0.00 44 1020.1
20260906124832 26 196 9.7 25.7 0.00 0.00 0.00 44 1020.2
20260906124330 26 237 9.7 25.7 0.00 0.00 0.00 44 1020.1
20260906123827 26 227 11.3 24.1 0.00 0.00 0.00 45 1020.2
20260906123329 26 210 12.9 22.5 0.00 0.00 0.00 45 1020.4
20260906122830 26 209 9.7 22.5 0.00 0.00 0.00 47 1020.4
20260906122649 26 149 6.4 20.9 0.00 0.00 0.00 49 1020.4
20260906121825 26 188 6.4 22.5 0.00 0.00 0.00 49 1020.5
20260906121325 25 237 9.7 22.5 0.00 0.00 0.00 50 1020.6
20260906120829 25 212 9.7 20.9 0.00 0.00 0.00 51 1020.6
20260906120326 25 243 9.7 20.9 0.00 0.00 0.00 50 1020.7
20260906115827 25 231 9.7 20.9 0.00 0.00 0.00 50 1020.7
20260906115323 25 254 8.0 24.1 0.00 0.00 0.00 53 1020.8
20260906114821 24 165 12.9 24.1 0.00 0.00 0.00 51 1020.9
20260906114322 24 210 11.3 25.7 0.00 0.00 0.00 53 1020.8
20260906113819 24 209 12.9 25.7 0.00 0.00 0.00 51 1020.9
20260906113322 23 245 8.0 27.4 0.00 0.00 0.00 53 1020.8
20260906112821 23 226 9.7 27.4 0.00 0.00 0.00 54 1021.0
20260906112320 23 248 14.5 24.1 0.00 0.00 0.00 53 1021.0
20260906111820 23 168 8.0 24.1 0.00 0.00 0.00 56 1021.0
20260906111320 23 216 8.0 24.1 0.00 0.00 0.00 55 1021.1
20260906110821 23 247 9.7 24.1 0.00 0.00 0.00 58 1021.2
20260906110325 23 240 12.9 20.9 0.00 0.00 0.00 58 1021.2
20260906105819 22 203 6.4 17.7 0.00 0.00 0.00 60 1021.2
20260906105319 22 180 8.0 17.7 0.00 0.00 0.00 62 1021.1
20260906104816 22 213 9.7 16.1 0.00 0.00 0.00 63 1021.3
20260906104628 22 247 8.0 22.5 0.00 0.00 0.00 64 1021.3
20260906103816 22 196 4.8 22.5 0.00 0.00 0.00 66 1021.4
20260906103313 21 197 6.4 14.5 0.00 0.00 0.00 64 1021.5
20260906102814 21 230 8.0 19.3 0.00 0.00 0.00 65 1021.5
20260906102311 21 193 9.7 19.3 0.00 0.00 0.00 64 1021.6
20260906101813 21 244 11.3 19.3 0.00 0.00 0.00 65 1021.6
20260906101312 21 127 9.7 20.9 0.00 0.00 0.00 66 1021.7
20260906100810 21 213 11.3 20.9 0.00 0.00 0.00 66 1021.8
20260906100303 21 206 11.3 19.3 0.00 0.00 0.00 67 1021.7
20260906095808 21 231 8.0 19.3 0.00 0.00 0.00 67 1021.7
20260906095619 20 178 9.7 19.3 0.00 0.00 0.00 68 1021.7
20260906094805 20 219 11.3 17.7 0.00 0.00 0.00 68 1021.8
20260906094303 20 0.0 0.0 0.00 0.00 0.00 68 1022.0
20260906094142 20 0.0 0.0 0.00 0.00 0.00 69 1022.1
20260906093303 20 0.0 0.0 0.00 0.00 0.00 70 1022.0
20260906092805 20 0.0 0.0 0.00 0.00 0.00 70 1021.9
20260906092306 20 0.0 0.0 0.00 0.00 0.00 73 1022.0
20260906091802 19 0.0 0.0 0.00 0.00 0.00 73 1022.1
20260906091303 19 0.0 0.0 0.00 0.00 0.00 73 1022.0
20260906090805 18 0.0 0.0 0.00 0.00 0.00 73 1022.0
20260906090306 18 0.0 0.0 0.00 0.00 0.00 74 1022.0
20260906085802 18 0.0 0.0 0.00 0.00 0.00 75 1022.0
20260906085306 18 0.0 0.0 0.00 0.00 0.00 76 1022.0
20260906084958 18 0.0 0.0 0.00 0.00 0.00 78 1022.0
20260906084919 18 0.0 0.0 0.00 0.00 0.00 78 1022.1
20260906083800 17 0.0 0.0 0.00 0.00 0.00 79 1022.0
20260906083301 17 0.0 0.0 0.00 0.00 0.00 80 1022.0
20260906082802 17 0.0 0.0 0.00 0.00 0.00 82 1022.2
20260906082305 17 0.0 0.0 0.00 0.00 0.00 83 1022.3
20260906081800 17 0.0 0.0 0.00 0.00 0.00 83 1022.2
20260906081617 16 0.0 0.0 0.00 0.00 0.00 84 1022.3
20260906081145 16 0.0 0.0 0.00 0.00 0.00 85 1022.4
20260906080302 16 0.0 0.0 0.00 0.00 0.00 86 1022.3
20260906075757 15 0.0 0.0 0.00 0.00 0.00 86 1022.3
20260906075256 15 0.0 0.0 0.00 0.00 0.00 86 1022.3
20260906074756 15 0.0 0.0 0.00 0.00 0.00 86 1022.5
20260906074252 15 0.0 0.0 0.00 0.00 0.00 86 1022.5
20260906073912 15 0.0 0.0 0.00 0.00 0.00 87 1022.7
20260906073842 15 0.0 0.0 0.00 0.00 0.00 86 1022.6
20260906072752 14 0.0 0.0 0.00 0.00 0.00 87 1022.6
20260906072557 14 0.0 0.0 0.00 0.00 0.00 88 1022.7
20260906071747 14 0.0 0.0 0.00 0.00 0.00 89 1022.8
20260906071248 13 0.0 0.0 0.00 0.00 0.00 89 1022.7
20260906070743 13 0.0 0.0 0.00 0.00 0.00 89 1022.7
20260906070245 13 0.0 0.0 0.00 0.00 0.00 89 1022.7
20260906065745 13 0.0 0.0 0.00 0.00 0.00 90 1022.7
20260906065553 13 0.0 0.0 0.00 0.00 0.00 89 1022.8
20260906064742 13 0.0 0.0 0.00 0.00 0.00 89 1022.7
20260906064558 13 0.0 0.0 0.00 0.00 0.00 89 1022.6
20260906064128 13 0.0 0.0 0.00 0.00 0.00 89 1022.7
20260906063240 13 0.0 0.0 0.00 0.00 0.00 89 1022.8
20260906062740 12 0.0 0.0 0.00 0.00 0.00 89 1022.7
20260906062238 12 0.0 0.0 0.00 0.00 0.00 89 1022.8
20260906061736 12 0.0 0.0 0.00 0.00 0.00 89 1022.8
20260906061234 12 0.0 0.0 0.00 0.00 0.00 89 1022.9
20260906060732 12 0.0 0.0 0.00 0.00 0.00 89 1023.0
20260906060233 12 0.0 0.0 0.00 0.00 0.00 89 1023.3
20260906055730 12 0.0 0.0 0.00 0.00 0.00 88 1023.5
20260906055232 12 0.0 0.0 0.00 0.00 0.00 88 1023.4
20260906054731 12 0.0 0.0 0.00 0.00 0.00 88 1023.4
20260906054232 12 0.0 0.0 0.00 0.00 0.00 88 1023.3
20260906053730 12 0.0 0.0 0.00 0.00 0.00 88 1023.4
20260906053228 12 0.0 0.0 0.00 0.00 0.00 88 1023.5
20260906052727 12 0.0 0.0 0.00 0.00 0.00 88 1023.5
20260906052226 12 0.0 0.0 0.00 0.00 0.00 88 1023.5
20260906051726 12 0.0 0.0 0.00 0.00 0.00 88 1023.6
20260906051224 12 0.0 0.0 0.00 0.00 0.00 88 1023.5
20260906050720 12 0.0 0.0 0.00 0.00 0.00 88 1023.5
20260906050524 12 0.0 0.0 0.00 0.00 0.00 88 1023.4
20260906045720 12 0.0 0.0 0.00 0.00 0.00 88 1023.5
20260906045219 12 0.0 0.0 0.00 0.00 0.00 88 1023.5
20260906044724 12 0.0 0.0 0.00 0.00 0.00 88 1023.7
20260906044539 12 0.0 0.0 0.00 0.00 0.00 88 1023.6
20260906043720 11 0.0 0.0 0.00 0.00 0.00 87 1023.6
20260906043222 11 0.0 0.0 0.00 0.00 0.00 87 1023.6
20260906043102 11 0.0 0.0 0.00 0.00 0.00 87 1023.6
20260906042220 11 0.0 0.0 0.00 0.00 0.00 87 1023.7
20260906041720 11 0.0 0.0 0.00 0.00 0.00 87 1023.7
20260906041216 11 0.0 0.0 0.00 0.00 0.00 87 1023.6
20260906040717 11 0.0 0.0 0.00 0.00 0.00 87 1023.6
20260906040217 12 0.0 0.0 0.00 0.00 0.00 87 1023.6
20260906035719 12 0.0 0.0 0.00 0.00 0.00 87 1023.6
20260906035215 12 0.0 0.0 0.00 0.00 0.00 87 1023.7
20260906034716 12 0.0 0.0 0.00 0.00 0.00 87 1023.7
20260906034215 12 0.0 0.0 0.00 0.00 0.00 87 1023.8
20260906034045 12 0.0 0.0 0.00 0.00 0.00 87 1023.7
20260906033215 12 0.0 0.0 0.00 0.00 0.00 87 1023.7
20260906032712 12 0.0 0.0 0.00 0.00 0.00 87 1023.7
20260906032210 12 0.0 0.0 0.00 0.00 0.00 87 1023.7
20260906031711 11 255 0.0 0.0 0.00 0.00 0.00 87 1023.8
20260906031212 11 255 0.0 0.0 0.00 0.00 0.00 87 1023.8
20260906030820 11 255 0.0 0.0 0.00 0.00 0.00 87 1023.9
20260906030753 11 255 0.0 0.0 0.00 0.00 0.00 87 1023.9
20260906025717 11 255 0.0 0.0 0.00 0.00 0.00 87 1024.0
20260906025221 11 255 0.0 0.0 0.00 0.00 0.00 87 1024.0
20260906024714 11 255 0.0 0.0 0.00 0.00 0.00 87 1024.1
20260906024210 11 255 0.0 0.0 0.00 0.00 0.00 87 1024.1
20260906024037 11 255 0.0 0.0 0.00 0.00 0.00 86 1024.2
20260906023213 11 255 0.0 0.0 0.00 0.00 0.00 86 1024.4
20260906022708 11 255 0.0 0.0 0.00 0.00 0.00 86 1024.4
20260906022204 11 255 0.0 0.0 0.00 0.00 0.00 86 1024.4
20260906021704 11 255 0.0 0.0 0.00 0.00 0.00 85 1024.4
20260906021203 11 255 0.0 0.0 0.00 0.00 0.00 85 1024.5
20260906020704 11 255 0.0 0.0 0.00 0.00 0.00 85 1024.6
20260906020202 11 255 0.0 0.0 0.00 0.00 0.00 85 1024.7
20260906015703 11 255 0.0 0.0 0.00 0.00 0.00 84 1024.7
20260906015447 11 255 0.0 0.0 0.00 0.00 0.00 84 1024.7
20260906014704 11 255 0.0 0.0 0.00 0.00 0.00 84 1024.7
20260906014203 11 255 0.0 0.0 0.00 0.00 0.00 84 1024.5
20260906013703 11 255 0.0 0.0 0.00 0.00 0.00 84 1024.7
20260906013201 11 255 0.0 0.0 0.00 0.00 0.00 84 1024.7
20260906012701 11 255 0.0 0.0 0.00 0.00 0.00 84 1024.6
20260906012202 11 255 0.0 0.0 0.00 0.00 0.00 83 1024.7
20260906011701 11 255 0.0 0.0 0.00 0.00 0.00 84 1024.8
20260906011456 11 255 0.0 0.0 0.00 0.00 0.00 83 1024.7
20260906010701 11 255 0.0 0.0 0.00 0.00 0.00 83 1024.9
20260906010201 12 255 0.0 0.0 0.00 0.00 0.00 83 1024.9
20260906005701 12 255 0.0 0.0 0.00 0.00 0.00 83 1024.9
20260906005203 12 255 0.0 0.0 0.00 0.00 0.00 84 1024.9
20260906004702 12 255 0.0 0.0 0.00 0.00 0.00 83 1025.0
20260906004201 12 255 0.0 0.0 0.00 0.00 0.00 83 1025.0
20260906003704 12 255 0.0 0.0 0.00 0.00 0.00 83 1025.0
20260906003204 12 255 0.0 0.0 0.00 0.00 0.00 83 1025.1
20260906002704 12 255 0.0 0.0 0.00 0.00 0.00 83 1025.2
20260906002201 12 255 0.0 0.0 0.00 0.00 0.00 83 1025.3
20260906001700 12 255 0.0 0.0 0.00 0.00 0.00 83 1025.4
20260906001159 12 255 0.0 0.0 0.00 0.00 0.00 83 1025.4
20260906000659 12 255 0.0 0.0 0.00 0.00 0.00 83 1025.3
20260906000158 12 255 0.0 0.0 0.00 0.00 0.00 83 1025.3
20260905235947 12 255 0.0 0.0 0.00 0.00 0.00 83 1025.3
20260905235157 12 255 0.0 0.0 0.00 0.00 0.00 83 1025.2
20260905234701 12 255 0.0 0.0 0.00 0.00 0.00 83 1025.2
20260905234158 12 255 0.0 0.0 0.00 0.00 0.00 82 1025.3
20260905233658 12 255 0.0 0.0 0.00 0.00 0.00 82 1025.3
20260905233157 12 255 0.0 0.0 0.00 0.00 0.00 81 1025.3
20260905232656 12 255 0.0 0.0 0.00 0.00 0.00 81 1025.4
20260905232154 12 255 0.0 0.0 0.00 0.00 0.00 82 1025.4
20260905231946 12 255 0.0 0.0 0.00 0.00 0.00 82 1025.4
20260905231154 12 255 0.0 0.0 0.00 0.00 0.00 82 1025.4
20260905230654 12 255 0.0 0.0 0.00 0.00 0.00 82 1025.6
20260905230150 12 255 0.0 0.0 0.00 0.00 0.00 82 1025.4
20260905225944 12 255 0.0 0.0 0.00 0.00 0.00 80 1025.5
20260905225452 12 255 0.0 0.0 0.00 0.00 0.00 79 1025.3
20260905225447 12 255 0.0 0.0 0.00 0.00 0.00 80 1025.3
20260905225146 12 255 0.0 0.0 0.00 0.00 0.00 79 1025.4
20260905223647 12 255 0.0 0.0 0.00 0.00 0.00 79 1025.4
20260905223146 12 255 0.0 0.0 0.00 0.00 0.00 79 1025.4
20260905222648 12 255 0.0 0.0 0.00 0.00 0.00 79 1025.3
20260905222147 12 255 0.0 0.0 0.00 0.00 0.00 79 1025.3
20260905221645 13 255 0.0 3.2 0.00 0.00 0.00 78 1025.3
20260905221147 13 255 0.0 3.2 0.00 0.00 0.00 78 1025.2
20260905220646 13 255 1.6 3.2 0.00 0.00 0.00 78 1025.3
20260905220144 13 255 0.0 0.0 0.00 0.00 0.00 78 1025.3
20260905215644 13 255 0.0 0.0 0.00 0.00 0.00 78 1025.2
20260905215145 13 255 0.0 0.0 0.00 0.00 0.00 78 1025.1
20260905214649 13 255 0.0 0.0 0.00 0.00 0.00 77 1025.1
20260905214140 13 255 0.0 0.0 0.00 0.00 0.00 77 1025.0
20260905213933 13 255 0.0 0.0 0.00 0.00 0.00 77 1024.9
20260905213141 13 255 0.0 0.0 0.00 0.00 0.00 77 1025.0
20260905212642 13 255 0.0 0.0 0.00 0.00 0.00 76 1025.1
20260905212428 13 255 0.0 0.0 0.00 0.00 0.00 76 1025.1
20260905211641 13 255 0.0 0.0 0.00 0.00 0.00 76 1025.2
20260905211436 13 255 0.0 0.0 0.00 0.00 0.00 75 1025.1
20260905210635 14 255 0.0 0.0 0.00 0.00 0.00 75 1025.1
20260905210136 14 255 0.0 0.0 0.00 0.00 0.00 75 1025.1
20260905205637 14 255 0.0 0.0 0.00 0.00 0.00 74 1025.0
20260905205426 14 255 0.0 0.0 0.00 0.00 0.00 74 1025.0
20260905204635 14 255 0.0 0.0 0.00 0.00 0.00 74 1024.9
20260905204424 14 255 0.0 0.0 0.00 0.00 0.00 73 1025.0
20260905203933 15 255 0.0 0.0 0.00 0.00 0.00 73 1024.9
20260905203133 15 255 0.0 0.0 0.00 0.00 0.00 72 1024.7
20260905202630 15 255 0.0 0.0 0.00 0.00 0.00 72 1024.9
20260905202132 15 255 0.0 0.0 0.00 0.00 0.00 71 1024.9
20260905201634 15 255 0.0 0.0 0.00 0.00 0.00 71 1024.8
20260905201324 15 255 0.0 0.0 0.00 0.00 0.00 70 1024.8
20260905201244 15 255 0.0 0.0 0.00 0.00 0.00 71 1024.9
20260905200131 16 255 0.0 0.0 0.00 0.00 0.00 69 1024.8
20260905195629 16 255 0.0 0.0 0.00 0.00 0.00 69 1024.8
20260905195130 16 255 0.0 0.0 0.00 0.00 0.00 69 1024.7